Wind_Speed
10 4 8 19 15 7 9 14 17 20 19 16 12 19 13 18 19 13 10 10 11 10 8 14 11 27 29 26 24 20 18 17 17 14 15 11 14 14 13 12 10 8 7 6
7 4 9 18 8 6 10 16 17 15 21 9 16 15 13 16 9 5 15 14 12 12 13 18 23 24 28 29 27 23 20 20 16 11 7 7 8 14 8 9 6 2 6 5
10 13 19 14 11 10 8 11 5 6 5 3 6 5 7 10 8 6 1 19 14 19 17 15 19 24 24 30 29 26 25 19 18 12 6 10 6 11 14 11 1 4 2 3
9 8 10 17 12 20 6 20 15 11 5 2 4 2 6 11 23 16 13 17 18 18 13 14 11 22 28 28 25 26 22 15 16 13 10 6 8 8 11 12 5 7 4 1
15 10 11 11 6 24 14 13 14 16 7 4 3 6 9 12 16 19 17 11 20 19 20 16 12 26 29 27 24 25 21 16 15 14 9 12 7 6 5 7 10 7 6 5
11 7 4 8 3 4 7 5 10 7 8 4 5 7 6 7 13 8 11 16 18 19 20 18 22 26 26 30 27 27 22 18 15 16 12 10 9 7 7 8 7 6 5 3
11 10 12 3 3 5 3 2 5 6 4 5 6 4 8 18 20 21 18 5 17 20 17 17 14 17 23 27 28 29 25 22 17 16 14 12 8 9 7 6 7 6 6 7
6 7 8 6 7 6 4 2 5 7 3 2 4 4 6 15 12 10 9 8 16 17 14 14 15 21 23 26 31 27 23 24 20 18 13 11 9 9 7 5 5 5 7 9
2 6 7 8 6 9 5 3 5 10 7 5 4 6 2 4 10 22 5 10 10 18 16 15 15 24 24 28 29 28 26 24 23 17 15 12 11 7 10 9 8 9 10 8
10 6 8 13 7 5 5 2 6 4 5 3 4 5 7 1 14 28 13 10 10 14 18 15 14 22 25 26 29 30 28 26 23 20 17 15 13 11 13 11 12 9 8 7
7 3 11 5 3 3 5 2 3 6 6 6 4 6 9 14 22 19 14 14 15 15 15 16 14 24 28 25 28 30 27 25 25 24 23 20 17 16 13 9 8 7 4 6
9 1 3 7 6 8 4 6 3 5 5 5 6 2 10 16 17 19 13 15 16 17 15 14 16 25 25 27 28 29 27 27 27 26 26 24 21 17 14 10 10 7 6 5
3 1 3 10 7 2 5 3 2 3 3 3 3 3 5 2 8 9 10 13 7 15 13 13 15 16 22 25 26 28 28 28 24 30 29 26 22 20 15 11 9 8 8 6
6 2 4 7 6 3 6 7 6 5 2 4 1 4 4 2 10 7 16 22 21 16 15 14 15 13 22 27 29 30 31 29 32 31 31 28 23 19 15 14 10 8 7 7
4 2 7 10 8 7 0 6 5 6 6 4 6 5 6 5 10 9 13 18 18 18 17 17 17 16 24 27 32 34 31 30 33 31 30 27 23 22 20 16 13 10 8 7
2 3 3 8 8 8 6 9 9 3 4 4 3 6 8 10 8 7 7 13 14 18 19 19 20 20 24 30 31 33 34 32 35 31 30 26 23 25 22 17 14 12 10 10
4 4 1 6 7 6 4 7 7 2 3 4 2 5 1 5 5 6 6 6 11 17 17 20 21 21 28 33 35 32 32 33 33 31 30 28 27 24 18 15 13 12 10 8
6 4 3 3 4 2 7 9 9 19 14 13 12 13 10 7 9 11 9 9 5 2 9 14 13 25 30 33 33 33 33 33 31 30 32 30 26 20 16 15 13 12 10 9
8 4 1 4 1 4 10 6 6 6 8 11 11 11 10 4 7 7 7 8 7 8 3 9 26 33 32 36 37 35 31 32 28 29 25 27 23 20 14 13 13 13 11 10
7 4 5 2 2 1 2 10 8 6 4 8 9 9 9 9 4 4 7 8 10 14 17 9 24 29 25 10 36 35 34 33 27 30 27 25 22 22 22 20 17 13 9 8
3 3 3 2 2 1 6 8 7 2 2 6 6 5 4 3 4 3 6 6 10 15 21 28 32 33 20 26 31 47 10 30 33 30 27 22 21 21 18 15 13 11 9 8
6 4 0 1 1 2 6 5 5 4 5 6 6 6 5 7 8 3 6 5 12 13 21 17 19 19 10 15 16 42 47 28 18 15 12 16 16 16 15 14 11 9 9 8
3 5 5 6 5 6 5 9 8 8 4 5 6 7 7 9 9 4 4 9 14 16 20 16 20 15 15 18 26 20 3 4 17 23 17 14 14 12 13 11 9 9 9 9
4 6 4 6 5 6 8 9 8 7 4 5 6 5 8 9 9 2 12 14 12 20 21 20 22 16 17 26 34 39 34 21 16 16 23 20 16 14 15 10 10 14 15 15
3 1 4 5 6 10 8 7 5 4 6 3 10 13 11 12 10 11 11 9 14 26 23 21 22 21 16 14 14 19 24 24 24 23 19 21 19 18 16 11 15 18 13 11
3 1 1 3 5 6 1 2 5 3 6 8 13 12 10 12 7 10 11 15 20 19 25 20 24 21 12 18 19 17 19 21 20 19 20 17 15 19 18 18 15 14 11 10
Wind_Direction
251 108 134 236 242 174 162 147 168 237 257 203 214 113 84 291 295 187 172 165 157 154 165 173 163 152 153 160 166 165 157 156 152 161 163 190 213 199 175 186 168 187 197 222
272 172 228 207 235 153 224 194 211 228 245 130 109 130 184 195 262 254 178 171 161 154 172 172 192 167 170 172 178 171 170 171 170 188 183 181 214 212 198 165 148 221 187 222
217 177 201 212 213 137 237 245 277 230 100 41 146 64 182 226 315 266 199 173 170 166 166 175 184 190 167 166 177 172 162 169 175 189 210 178 124 136 142 166 38 356 301 267
235 190 216 262 200 152 63 265 253 53 79 81 21 239 321 352 325 316 311 183 179 165 162 168 175 158 162 177 163 169 169 176 193 196 198 168 139 128 165 165 167 229 219 76
250 183 206 246 166 151 219 228 88 63 43 116 15 70 300 332 293 289 286 256 180 166 167 164 166 162 168 167 169 171 168 175 182 186 189 171 169 146 145 149 149 181 166 219
259 222 167 217 93 268 96 98 50 31 47 7 153 134 237 228 242 275 275 269 180 165 163 168 173 162 155 167 166 166 165 172 185 182 184 167 199 166 141 151 170 164 184 182
299 286 170 113 173 261 174 176 58 326 23 241 189 83 234 222 232 233 261 205 154 158 156 167 156 156 149 159 153 164 166 167 176 179 182 173 180 186 177 161 157 165 163 163
230 302 233 177 166 196 333 60 159 182 180 266 123 221 251 228 227 287 149 129 136 150 152 145 150 143 151 149 156 163 167 171 176 190 190 192 204 197 178 170 151 139 145 145
286 259 334 293 204 154 203 244 241 91 43 91 282 298 317 231 9 339 167 128 145 148 148 143 143 144 151 156 161 167 169 177 181 184 191 193 188 170 164 142 142 144 122 121
261 309 245 253 166 164 139 202 17 357 157 202 330 357 269 128 156 218 229 151 132 132 141 139 142 144 154 162 169 170 173 177 180 184 186 181 175 171 148 155 133 149 143 138
229 206 291 7 119 124 8 358 225 117 135 156 144 270 246 231 192 199 206 150 142 140 148 147 148 147 156 160 163 169 174 179 185 184 181 176 172 157 163 173 164 145 146 138
202 64 297 258 160 135 191 235 223 133 255 206 162 198 252 246 146 194 171 151 147 149 154 152 151 152 159 164 162 168 175 187 189 189 179 172 160 159 164 162 157 166 155 152
22 55 338 328 346 168 180 213 300 352 65 285 96 215 276 358 45 35 138 136 111 144 150 150 150 155 161 163 164 172 182 193 194 176 172 164 163 166 164 167 169 169 161 168
50 347 173 217 237 271 159 200 202 153 64 283 351 222 318 42 113 96 102 121 152 224 161 155 159 159 162 168 171 179 189 192 175 166 162 160 162 167 163 162 167 165 170 167
93 271 298 294 293 325 311 223 187 181 213 150 244 151 219 174 151 170 164 174 177 180 166 165 167 167 168 170 179 181 191 172 169 164 164 165 165 168 167 169 171 180 180 170
263 251 291 298 317 335 349 341 335 282 337 229 126 296 178 172 164 173 174 129 167 174 177 174 172 173 173 174 178 178 187 173 168 168 166 165 171 168 171 176 178 174 171 184
205 181 215 276 308 312 330 274 269 195 313 309 16 339 40 146 91 69 84 117 165 190 185 182 177 179 178 177 176 176 178 168 171 168 168 169 164 164 170 170 174 176 179 182
192 182 157 219 37 347 253 4 65 68 42 30 45 39 54 75 66 39 22 18 13 66 199 188 178 181 181 176 173 173 174 167 170 168 167 166 163 165 168 172 178 178 181 180
177 159 142 127 203 286 321 27 38 69 31 36 45 26 17 32 72 27 11 348 329 318 289 210 182 182 176 172 170 163 155 159 160 163 159 160 165 157 169 183 188 194 189 187
356 77 115 108 134 241 26 14 10 18 45 33 43 28 21 10 46 285 352 351 358 15 359 255 198 184 169 137 154 150 148 151 149 156 163 160 168 169 184 192 192 188 196 198
305 353 125 332 198 154 346 6 316 55 212 36 52 360 36 350 224 194 25 28 48 43 27 35 98 87 76 60 14 356 181 139 153 160 163 167 179 180 185 191 190 192 194 202
157 124 346 268 141 116 359 38 81 198 26 33 18 335 341 309 302 95 56 7 63 47 43 68 65 77 115 94 350 321 301 98 119 139 149 165 175 173 173 182 186 200 207 213
126 159 170 124 211 229 100 116 73 56 53 11 347 312 343 316 307 109 69 64 72 63 59 76 94 90 106 135 147 135 76 127 166 147 168 174 182 176 196 185 191 208 220 216
69 21 102 94 28 56 47 72 74 61 2 319 326 347 330 299 282 98 66 61 71 77 74 74 69 86 96 129 153 166 172 179 176 183 181 174 188 186 183 189 203 221 227 234
148 348 112 106 27 86 64 68 51 24 299 319 46 52 39 29 24 77 83 71 84 85 92 94 97 99 119 158 191 189 179 181 183 185 177 185 184 185 195 208 217 231 243 237
105 104 45 134 140 109 83 127 101 336 293 76 90 61 47 44 39 61 61 70 76 90 108 108 115 122 138 171 173 180 179 175 176 184 193 193 195 201 204 216 220 228 241 242
Height
733 764 779 766 764 772 784 795 796 774 751 778 783 784 782 783 783 757 763 761 768 771 770 773 779 781 787 789 792 796 798 803 805 808 811 813 815 814 816 818 822 824 824 824
750 768 748 744 741 765 771 787 785 758 751 757 770 788 783 786 781 763 755 758 759 768 768 769 775 780 782 786 791 795 797 801 804 806 809 810 811 811 816 821 822 823 821 821
758 748 730 739 753 770 775 781 771 765 743 756 763 791 788 778 764 759 748 745 749 753 760 765 768 772 779 784 788 792 796 800 803 805 808 810 811 812 815 819 816 818 818 817
739 726 731 733 739 753 804 750 751 755 769 799 764 827 799 781 772 760 754 747 743 748 752 760 765 769 773 779 784 789 793 797 800 804 807 810 810 813 814 815 814 814 818 818
740 734 735 741 736 744 758 745 759 759 776 784 798 828 819 786 780 763 747 745 735 739 745 754 760 764 769 776 781 787 791 796 799 803 805 807 809 810 812 815 817 818 819 818
722 699 716 721 709 713 715 734 759 774 783 815 796 813 826 803 770 760 743 733 729 735 743 750 756 762 768 774 778 785 790 795 799 802 804 805 808 810 812 815 817 816 818 818
731 722 711 701 728 714 724 750 815 836 840 834 793 803 792 767 758 750 746 729 725 732 741 749 754 761 766 772 776 783 788 792 797 800 802 804 807 808 810 813 815 817 819 820
766 769 721 703 720 739 736 750 805 835 837 820 791 808 783 740 736 741 722 724 726 733 739 746 752 759 765 770 774 780 784 789 793 797 800 803 806 808 809 810 812 814 815 817
755 752 700 702 701 716 737 764 738 789 798 817 798 773 744 739 750 747 730 727 731 733 739 745 752 758 764 769 773 777 782 787 791 795 798 801 804 806 808 810 811 813 814 816
731 764 716 703 694 702 719 720 777 784 828 831 818 802 791 766 771 765 740 731 732 730 735 742 749 755 761 767 771 776 781 785 789 792 796 800 802 804 807 808 810 811 813 814
714 737 741 712 721 732 740 753 746 770 797 831 834 825 754 747 741 749 730 725 731 735 738 739 745 752 759 765 770 774 779 784 787 789 793 796 799 802 806 808 810 811 812 813
707 726 759 740 704 699 712 734 742 789 783 782 789 796 727 725 712 711 717 720 723 727 732 739 744 749 757 763 768 773 777 780 783 786 789 793 798 801 803 806 809 811 813 814
705 739 776 763 734 710 726 719 721 738 754 774 792 781 717 713 713 716 719 720 727 727 733 738 742 748 754 760 765 770 774 776 779 783 787 791 796 799 802 806 809 811 812 814
702 731 753 783 754 728 738 727 723 736 776 773 766 755 729 717 720 715 725 729 732 735 730 734 740 742 748 755 760 765 769 771 774 779 783 787 793 796 800 804 808 810 812 814
715 748 740 735 724 719 721 723 722 737 736 759 753 745 732 720 720 713 711 717 724 728 725 728 733 735 740 747 752 757 761 764 768 774 779 784 787 791 795 799 803 806 809 811
712 750 735 747 724 722 731 722 720 717 721 727 723 733 710 706 702 709 708 711 720 719 717 718 721 726 731 738 745 751 757 760 764 769 774 780 784 788 792 795 798 801 804 807
727 743 752 765 735 730 754 732 725 714 711 721 744 735 702 708 710 714 712 705 710 708 708 711 713 719 725 731 740 749 757 763 768 771 775 778 782 788 792 795 799 801 803 805
725 736 745 765 747 781 736 710 709 729 729 723 726 722 722 723 716 712 709 710 704 703 707 706 711 715 721 727 736 745 753 761 768 772 774 777 784 789 795 798 800 801 801 801
702 726 749 770 771 747 735 721 726 734 750 727 733 726 720 717 717 721 710 706 704 703 703 705 700 705 713 719 725 735 748 755 764 771 778 780 783 789 798 802 802 801 799 798
704 713 746 752 770 781 746 721 707 709 770 730 728 731 729 724 748 736 712 705 705 708 704 700 699 702 713 728 720 730 735 745 759 766 776 777 785 783 788 793 797 799 802 799
736 738 752 759 763 747 732 720 710 759 770 730 728 728 727 735 730 715 709 708 711 713 710 701 700 714 727 730 729 764 746 736 745 761 773 774 782 784 790 796 798 800 799 799
746 754 755 751 759 773 721 721 751 744 729 729 728 725 724 720 714 709 708 709 714 717 720 716 714 721 722 717 740 771 747 732 761 769 776 781 789 790 790 794 796 798 800 799
742 731 747 745 762 727 718 727 725 726 732 730 728 723 720 719 716 710 710 714 721 723 729 727 720 718 725 731 745 762 754 762 765 758 774 780 786 789 792 791 794 798 799 796
708 708 733 737 734 725 723 722 722 724 728 725 722 720 720 722 714 713 715 720 725 732 737 739 739 736 735 738 743 740 753 758 760 770 772 774 783 787 791 789 792 795 795 793
720 714 726 734 730 728 727 725 724 724 723 722 724 726 726 721 717 717 721 729 731 736 745 747 749 754 756 756 758 759 759 761 769 772 774 779 780 783 784 787 790 791 789 790
716 725 736 748 729 733 730 722 721 724 724 723 729 731 728 727 730 727 729 731 734 739 745 748 752 758 766 763 757 757 760 762 767 771 775 778 777 779 779 784 784 787 786 785